Leadville, CO

6:16 PM MST on November 24, 2017 (GMT -0700)
Lake County

Weather History for KLXV - August, 2013

Change the Weather History Date:

Thursday, August 22, 2013

  Actual Average Record
Temperature  
Mean Temperature 57 °F -  
Max Temperature 71 °F 67 °F 77 °F (2010)
Min Temperature 43 °F 37 °F 0 °F (2011)
Degree Days  
Heating Degree Days 8 13  
Month to date heating degree days 262 259  
Since 1 June heating degree days 900 1075  
Since 1 July heating degree days 529 595  
Cooling Degree Days 0 0  
Month to date cooling degree days 0 0  
Year to date cooling degree days 0 0  
Since 1 June cooling degree days 0 0  
Growing Degree Days 6 (Base 50)    
Moisture  
Dew Point 43 °F    
Average Humidity 63    
Maximum Humidity 89    
Minimum Humidity 37    
Precipitation  
Precipitation 0.01 in 0.07 in 0.98 in (2011)
Month to date precipitation 1.08 1.49  
Year to date precipitation 11.31 8.41  
Sea Level Pressure  
Sea Level Pressure 30.17 in    
Wind  
Wind Speed 4 mph (NNE)    
Max Wind Speed 21 mph    
Max Gust Speed 25 mph    
Visibility 10 miles    
Events Rain , Thunderstorm    
T = Trace of Precipitation, MM = Missing Value Source: NWS Daily Summary

Daily Weather History Graph

Daily Weather History Graph

Search for Another Location

Airport or City:

Trip Planner

Search our weather history database for the weather conditions in past years. The results will help you decide how hot, cold, wet, or windy it might be!

Date:

Astronomy

Aug. 22, 2013 Rise Set
Actual Time 6:25 AM MDT 7:50 PM MDT
Civil Twilight 5:56 AM MDT 8:18 PM MDT
Nautical Twilight 5:23 AM MDT 8:52 PM MDT
Astronomical Twilight 4:47 AM MDT 9:27 PM MDT
Moon 8:37 PM MDT (8/22) 8:15 AM MDT (8/22)
Length of Visible Light 14h 21m
Length of Day
13h 25m
Waning Gibbous, 96% of the Moon is Illuminated
Aug 22
Waning Gibbous
Aug 28
Last Quarter
Sep 5
New
Sep 12
First Quarter
Sep 19
Full

Hourly Weather History & Observations

Time (MDT) Temp. Dew Point Humidity Pressure Visibility Wind Dir Wind Speed Gust Speed Precip Events Conditions
12:53 AM 48.0 °F 44.1 °F 86% 30.01 in 10.0 mi NE 4.6 mph - N/A   Mostly Cloudy
1:53 AM 46.9 °F 42.1 °F 83% 30.01 in 10.0 mi East 3.5 mph - N/A   Mostly Cloudy
2:53 AM 45.0 °F 41.0 °F 86% 30.03 in 10.0 mi Calm Calm - N/A   Clear
3:53 AM 44.1 °F 41.0 °F 89% 29.99 in 10.0 mi Calm Calm - N/A   Partly Cloudy
4:53 AM 46.0 °F 41.0 °F 83% 30.06 in 10.0 mi Calm Calm - N/A   Mostly Cloudy
5:53 AM 46.9 °F 43.0 °F 86% 30.12 in 10.0 mi Calm Calm - N/A   Overcast
6:53 AM 46.9 °F 42.1 °F 83% 30.12 in 10.0 mi Calm Calm - N/A   Overcast
7:53 AM 50.0 °F 41.0 °F 71% 30.13 in 10.0 mi ENE 3.5 mph - N/A   Overcast
8:53 AM 53.1 °F 44.1 °F 71% 30.12 in 10.0 mi Calm Calm - N/A   Overcast
9:53 AM 53.1 °F 44.1 °F 71% 30.14 in 10.0 mi South 6.9 mph - 0.00 in   Overcast
10:53 AM 59.0 °F 46.9 °F 64% 30.09 in 10.0 mi Variable 3.5 mph - N/A   Mostly Cloudy
11:53 AM 64.0 °F 42.1 °F 45% 30.05 in 10.0 mi Calm Calm - N/A   Mostly Cloudy
12:53 PM 64.0 °F 42.1 °F 45% 30.03 in 10.0 mi SSW 4.6 mph - N/A   Overcast
1:53 PM 66.0 °F 39.9 °F 38% 30.00 in 10.0 mi South 10.4 mph - 0.00 in   Mostly Cloudy
2:25 PM 64.4 °F 41.0 °F 42% 30.52 in 10.0 mi SW 9.2 mph - N/A Thunderstorm Overcast
2:53 PM 62.1 °F 43.0 °F 50% 30.04 in 10.0 mi WSW 6.9 mph - 0.00 in Rain , Thunderstorm Light Thunderstorms and Rain
3:22 PM 60.8 °F 41.0 °F 48% 30.51 in 10.0 mi Calm Calm - 0.00 in   Overcast
3:29 PM 62.6 °F 42.8 °F 48% 30.50 in 10.0 mi Calm Calm - 0.00 in Thunderstorm Overcast
3:44 PM 66.2 °F 42.8 °F 43% 30.49 in 10.0 mi NNE 9.2 mph - 0.00 in   Mostly Cloudy
3:53 PM 66.9 °F 42.1 °F 40% 29.98 in 10.0 mi Variable 5.8 mph - 0.00 in Thunderstorm Mostly Cloudy
4:09 PM 68.0 °F 41.0 °F 37% 30.47 in 10.0 mi North 9.2 mph - N/A   Clear
4:44 PM 69.8 °F 39.2 °F 33% 30.46 in 10.0 mi NNW 8.1 mph - N/A Thunderstorm Clear
4:53 PM 69.1 °F 39.9 °F 35% 29.93 in 10.0 mi NW 9.2 mph - N/A Thunderstorm Partly Cloudy
5:12 PM 64.4 °F 39.2 °F 40% 30.47 in 10.0 mi South 20.7 mph 25.3 mph N/A   Mostly Cloudy
5:19 PM 62.6 °F 42.8 °F 48% 30.47 in 10.0 mi South 17.3 mph 25.3 mph N/A Thunderstorm Overcast
5:53 PM 61.0 °F 42.1 °F 50% 29.99 in 10.0 mi South 4.6 mph - 0.00 in Thunderstorm Overcast
6:38 PM 60.8 °F 42.8 °F 52% 30.45 in 10.0 mi NNW 4.6 mph - N/A   Mostly Cloudy
6:53 PM 57.9 °F 46.9 °F 67% 29.98 in 10.0 mi North 8.1 mph - N/A Thunderstorm Overcast
7:53 PM 55.0 °F 46.0 °F 72% 30.01 in 10.0 mi North 16.1 mph 19.6 mph N/A Thunderstorm Overcast
8:06 PM 55.4 °F 44.6 °F 67% 30.48 in 10.0 mi North 10.4 mph - N/A   Overcast
8:53 PM 54.0 °F 44.1 °F 69% 30.01 in 10.0 mi NNE 8.1 mph - 0.00 in   Mostly Cloudy
9:53 PM 52.0 °F 46.0 °F 80% 30.06 in 10.0 mi NE 6.9 mph - N/A   Overcast
10:53 PM 51.1 °F 45.0 °F 80% 30.04 in 10.0 mi Calm Calm - N/A   Mostly Cloudy
11:53 PM 50.0 °F 45.0 °F 83% 30.03 in 10.0 mi Calm Calm - N/A   Overcast